Location: Waco, TX
(31.5480°N, 97.1670°W)
Time: 00:04:37
(UTC-05:00)

ISS - Pass Details

Date: 20 June 2018
Orbit: 402 x 406 km, 51.6° (Epoch: 19 June)

Event Time Altitude Azimuth Distance (km) Brightness Sun altitude
Rises 17:49:09 0° 310° (NW) 2,319 0.8 32.8°
Reaches altitude 10° 17:51:16 10° 305° (NW) 1,456 0.1 32.4°
Maximum altitude 17:54:27 51° 228° (SW) 510 -2.4 31.7°
Drops below altitude 10° 17:57:36 10° 151° (SSE) 1,446 -1.3 31.1°
Sets 17:59:42 0° 146° (SE) 2,300 -0.4 30.6°
